Location: Kavul?ru
(16.6288°N, 80.5832°E)
Time: 20:10:20
(UTC+00:00)

IRS-P3 - Pass Details

Date: 15 May 2026
Orbit: 811 x 815 km, 99.0° (Epoch: 6 June)

Event Time Altitude Azimuth Distance (km) Brightness Sun altitude
Rises 13:19:58 0° 167° (SSE) 3,320 7.0 -5.0°
Reaches altitude 10° 13:22:17 10° 167° (SSE) 2,389 6.2 -5.5°
Maximum altitude 13:27:35 88° 255° (WSW) 814 4.2 -6.7°
Drops below altitude 10° 13:32:53 10° 347° (NNW) 2,391 7.1 -7.9°
Sets 13:35:13 0° 347° (NNW) 3,323 7.8 -8.4°
